星链-32491 (STARLINK-32491)

导读 | 豆包AI

STARLINK-32491是美国SpaceX公司星链(Starlink)低轨卫星互联网星座的成员,于2024年11月21日发射。星链计划旨在通过大规模低轨卫星组网,为全球尤其是基础设施匮乏地区提供高速低延迟宽带互联网服务。该卫星加入星座后,进一步扩大了星链的全球覆盖范围,助力实现更稳定的网络连接,推动星链全球化服务布局,目前星链已在全球百余个国家和地区提供服务。

基本信息
目录编号:
62043
目录名称:
STARLINK-32491
国际标识:
2024-216M
轨道中心:
EARTH
卫星名称:
星链-32491
卫星全名:
星链-32491 (STARLINK-32491)
卫星状态:
在轨 (已飞行479 天)
发射日期:
2024-11-21 UTC
国别 :
美国 (US)
星等 :
--
轨道信息
数据来源 国际轨道数据
星历时间: 2026-03-15T03:39:45+0800
10小时前
查看轨道信息
半长轴: 6861.068km
偏心率: 0.0001724
轨道倾角: 43.002°
近地点辐角 267.353°
升交点赤经 234.833°
平近点角 92.712°
近地点: 481.748km
远地点: 484.114km
周期: 94.264分钟
每日圈数: 15.276196
详细信息
固有亮度:
5
最大亮度:
2.5
卫星平台:
Starlink V1.0
覆盖范围:
全球
运营商:
太空探索技术公司
运营商所在国:
美国
制造商(研发单位):
太空探索技术公司
制造商所在国:
美国
使用方式:
暂无
卫星简介
Starlink 计划是 SpaceX 推出的全球卫星互联网项目,通过发射低轨道卫星,为全球尤其是偏远地区提供高速、低延迟的互联网服务。自 2019 年起,Starlink 已部署数千颗卫星,旨在缩小全球数字鸿沟,推动互联网普及。该项目还为军事、航空等行业提供通信支持,带来广泛经济效益。
2D轨道图
3D轨道图
轨道高度分析图
轨道倾角分析图
轨道综合分析图
查看轨道综合分析图